Dewpoint
14 15 15 15 16 17 18 19 19 19 19 19 19 18 18 18 18 18 18 18 18 19 19 19 20 20 20 19 20 19 18 18 17 16 16 15 15 15 17 16 18 17 16 14 14 14 13 13 12 4 3 4 5 6 13 16 7 9 9 10 11 12 26
12 13 13 14 15 16 17 18 18 19 21 21 21 21 22 19 18 18 18 18 18 18 19 19 20 21 19 19 20 23 22 21 18 20 17 16 18 15 17 14 16 16 15 16 13 12 12 12 12 11 3 2 3 5 10 11 8 9 6 7 8 9 13
11 12 12 13 14 15 16 16 17 18 19 20 21 21 22 23 22 21 20 19 19 19 19 20 22 20 21 23 23 23 23 22 22 22 21 20 19 17 15 15 14 16 16 17 14 13 12 12 11 11 10 4 2 6 6 11 11 9 11 12 6 8 12
9 10 11 12 14 14 15 15 15 17 17 19 19 20 21 21 22 23 24 24 23 22 22 23 23 23 22 24 24 24 22 22 23 22 21 21 21 20 17 16 15 14 17 16 15 13 12 12 12 12 10 10 5 3 5 9 12 12 10 10 12 7 7
8 8 10 10 11 12 13 14 14 15 16 17 18 19 20 22 23 23 24 25 25 26 26 26 25 25 26 26 25 25 24 24 24 24 23 23 23 22 21 19 18 19 18 17 16 16 15 14 14 13 13 10 4 3 5 6 9 11 12 11 10 9 9
7 9 8 9 9 10 10 11 12 13 14 15 16 17 20 22 22 22 23 24 24 24 25 26 26 26 26 26 26 25 26 26 25 25 24 24 24 23 23 23 22 22 21 20 19 19 18 16 15 14 14 13 11 6 4 4 8 9 16 16 15 14 13
6 7 8 8 8 9 10 10 11 12 13 15 17 19 20 21 21 21 22 23 23 24 24 25 25 25 26 26 26 26 26 26 25 25 25 25 25 24 24 23 23 23 22 21 21 20 20 19 18 16 15 14 14 11 6 4 4 9 11 14 15 14 15
5 5 6 7 7 7 7 8 9 11 13 16 18 20 20 20 20 20 21 21 22 22 23 24 24 25 25 26 26 26 26 26 25 25 25 25 25 24 24 23 23 22 22 21 21 20 19 18 18 17 17 16 16 14 10 6 4 5 6 11 14 13 13
2 4 5 6 7 5 6 8 9 10 12 15 17 19 19 19 20 20 20 20 20 20 20 20 21 21 22 22 22 23 24 24 25 25 24 25 25 24 24 23 22 22 21 21 20 19 19 18 18 18 17 16 16 15 14 11 7 8 6 9 11 13 14
1 2 4 4 6 6 5 6 7 9 14 17 17 18 18 19 17 17 17 17 17 16 17 17 17 18 19 20 20 21 21 21 22 22 23 23 24 24 24 23 22 22 21 20 19 19 19 18 17 17 16 15 15 15 15 14 11 7 7 9 11 11 12
2 2 2 2 4 4 4 5 5 10 16 17 18 17 17 17 15 15 15 15 14 13 12 13 14 15 16 16 17 17 18 18 19 19 20 21 21 22 22 23 22 22 21 20 19 19 19 18 18 18 16 15 15 15 15 14 13 9 10 9 8 7 11
2 1 2 2 3 3 4 4 6 14 16 17 17 17 17 14 12 13 12 12 12 11 10 10 11 12 13 14 15 15 15 15 17 17 18 19 20 20 21 22 22 22 22 21 20 19 19 19 18 18 18 18 17 16 15 16 15 14 11 10 9 9 9
1 1 1 2 2 3 3 3 7 14 15 16 17 17 17 12 11 10 10 10 10 9 9 9 10 11 11 12 13 12 12 12 12 15 17 18 19 19 20 21 22 22 22 23 22 20 19 19 19 19 19 19 18 19 17 17 16 15 13 11 10 9 10
0 0 1 1 1 1 2 3 7 13 14 15 15 15 15 12 11 9 9 9 8 7 7 9 9 7 7 8 8 8 8 9 10 11 13 15 16 17 18 19 20 20 21 22 21 22 21 21 21 19 19 21 21 19 18 17 16 16 13 12 11 12 12
-1 -0 1 1 1 1 1 2 8 11 12 14 14 15 12 8 9 8 8 6 7 8 8 9 7 6 5 6 6 6 8 9 11 12 12 12 13 14 15 16 18 19 19 19 20 20 21 22 23 22 22 21 21 21 20 19 18 17 15 14 14 14 15
-2 -1 -1 -0 0 0 1 1 6 10 11 13 14 14 8 6 6 7 7 6 7 7 9 7 6 5 5 5 5 7 9 11 11 12 11 10 11 11 12 13 15 17 19 20 21 21 21 21 22 24 24 23 22 21 21 20 19 19 17 15 13 11 12
-2 -2 -1 -0 -0 0 0 -1 3 8 11 12 13 11 6 6 5 4 5 5 6 6 6 5 6 5 4 5 4 7 12 14 12 11 11 9 9 10 11 10 14 15 16 17 19 19 21 22 23 24 25 25 25 24 22 19 17 16 16 14 12 11 11
-3 -2 -0 -0 -2 -1 -2 -3 -0 6 10 11 12 10 6 4 3 3 3 4 6 6 4 5 5 5 4 4 5 9 12 13 11 10 8 6 6 6 8 9 10 8 9 13 15 15 16 17 19 21 21 22 22 23 22 22 17 16 16 14 13 11 11
-2 -2 -0 -1 -2 0 -2 -3 -2 3 9 10 11 9 6 3 2 2 2 2 3 4 3 3 2 3 4 4 5 10 11 12 9 8 7 4 4 4 4 6 7 4 4 5 6 7 8 10 13 15 18 19 20 20 20 19 20 18 15 13 12 12 11
-1 -1 -0 -0 -1 -2 -3 -4 -4 -1 7 9 10 11 6 3 1 1 2 3 1 -1 -0 -0 -1 -1 2 5 7 9 10 11 12 7 6 3 0 1 2 6 4 2 2 3 4 4 7 9 10 13 14 16 18 19 19 19 20 20 17 15 12 12 11
-2 -1 -1 -1 -2 -2 -3 -3 -3 -3 4 7 9 10 8 4 3 2 -0 -2 -2 -4 -4 -4 -4 -5 -2 -0 5 9 11 11 11 9 4 -0 -1 2 6 6 -2 -1 1 1 2 2 3 3 6 8 10 12 15 16 17 18 19 20 19 16 13 12 11
-3 -3 -3 -3 -3 -2 -4 -4 -3 -5 -2 5 7 9 9 3 2 1 -5 -6 -7 -6 -7 -7 -8 -8 -5 -2 6 9 9 9 9 8 -2 -1 9 10 8 -3 -3 -4 -4 -4 -3 -3 -2 -1 1 3 5 8 11 13 15 17 17 19 19 18 17 14 12
-2 -3 -4 -4 -5 -3 -4 -5 -6 -5 -5 -1 5 7 7 7 3 4 -6 -9 -9 -8 -9 -9 -10 -9 -4 -0 7 7 7 7 6 -1 -1 8 7 5 -3 -5 -8 -4 -6 -5 -4 -3 -3 -2 -1 -0 2 5 7 10 14 15 16 18 19 18 18 17 16
-6 -5 -5 -5 -7 -8 -8 -7 -7 -7 -6 -4 0 5 4 6 5 4 -6 -10 -12 -10 -11 -13 -12 -7 1 4 5 5 4 3 -4 -4 4 3 -5 -6 -7 -9 -9 -9 -9 -7 -7 -6 -5 -4 -2 -0 1 3 5 6 8 10 12 13 17 18 17 18 17
-6 -6 -6 -7 -8 -9 -9 -9 -8 -11 -9 -4 -2 2 2 3 1 -5 -7 -12 -12 -10 -14 -12 -3 -0 1 0 1 1 -2 -8 -10 -7 -7 -10 -9 -10 -13 -12 -12 -12 -12 -12 -10 -9 -8 -8 -6 -5 -4 -2 -1 1 4 6 8 10 13 16 17 17 16
-8 -7 -7 -8 -9 -10 -10 -10 -10 -13 -11 -6 -4 -4 -3 -1 -7 -9 -10 -11 -14 -13 -14 -12 -8 -13 -13 -12 -13 -13 -14 -14 -15 -13 -12 -14 -14 -16 -16 -15 -15 -15 -14 -14 -13 -12 -12 -12 -10 -9 -7 -4 -3 -3 -2 1 3 5 6 8 10 12 13
-8 -8 -9 -10 -11 -11 -11 -11 -12 -15 -12 -8 -8 -10 -9 -9 -13 -12 -14 -16 -17 -17 -19 -18 -16 -16 -16 -16 -15 -16 -16 -17 -17 -18 -20 -20 -20 -19 -18 -17 -17 -16 -16 -16 -16 -16 -15 -13 -12 -10 -9 -9 -7 -6 -4 -1 1 2 4 5 6 8 8
-9 -9 -10 -12 -13 -13 -13 -13 -14 -16 -12 -7 -8 -10 -11 -11 -16 -19 -20 -20 -19 -19 -20 -21 -18 -19 -21 -21 -21 -22 -22 -23 -22 -21 -20 -21 -20 -20 -19 -17 -15 -16 -18 -19 -18 -17 -16 -15 -15 -15 -13 -12 -11 -9 -7 -5 -3 -2 -1 2 5 5 5
-8 -9 -11 -13 -14 -13 -14 -15 -15 -15 -5 -4 -4 -8 -10 -12 -17 -20 -21 -18 -16 -19 -22 -23 -24 -24 -24 -25 -24 -25 -25 -24 -23 -23 -22 -21 -21 -22 -22 -21 -23 -23 -22 -21 -20 -20 -19 -19 -18 -18 -16 -15 -14 -13 -12 -10 -9 -7 -6 -4 -1 2 4
-7 -8 -12 -14 -13 -12 -15 -15 -14 -8 -0 -1 -2 -2 -5 -6 -4 -12 -18 -18 -18 -21 -27 -26 -27 -27 -27 -27 -27 -25 -27 -25 -25 -25 -25 -24 -20 -22 -23 -22 -23 -24 -23 -22 -21 -21 -21 -21 -20 -20 -19 -19 -18 -17 -15 -13 -10 -11 -9 -7 -5 -3 0
-2 -3 -8 -10 -13 -12 -9 -11 -10 -9 -1 -2 -1 -2 -3 -4 -9 -10 -15 -18 -23 -28 -29 -29 -29 -29 -29 -28 -29 -27 -27 -26 -26 -26 -26 -25 -25 -24 -24 -22 -24 -24 -23 -23 -23 -23 -23 -22 -22 -22 -22 -21 -20 -19 -18 -18 -15 -14 -13 -11 -9 -7 -6
-3 -3 -4 -8 -8 -11 -15 -12 -11 -10 -2 -3 -2 -3 -6 -4 -4 -4 -13 -20 -22 -30 -31 -31 -31 -31 -31 -30 -30 -30 -29 -27 -27 -27 -27 -26 -26 -26 -25 -24 -25 -23 -24 -24 -25 -25 -25 -25 -24 -24 -23 -23 -22 -20 -21 -21 -19 -18 -16 -14 -12 -10 -8
-6 -6 -5 -4 -4 -3 -5 -10 -10 -9 -4 -4 -3 -5 -14 -10 -9 -18 -20 -23 -29 -31 -32 -32 -32 -32 -32 -32 -32 -31 -31 -30 -29 -28 -28 -27 -27 -27 -26 -25 -24 -22 -24 -24 -25 -25 -26 -25 -25 -25 -24 -23 -23 -23 -24 -23 -22 -21 -18 -16 -15 -13 -11
-13 -13 -13 -12 -11 -10 -11 -11 -9 -9 -10 -8 -6 -7 -9 -15 -16 -13 -18 -25 -31 -32 -32 -32 -32 -32 -32 -32 -32 -32 -31 -31 -30 -29 -28 -28 -28 -27 -27 -26 -24 -25 -25 -25 -26 -27 -26 -25 -26 -26 -26 -26 -26 -25 -24 -25 -23 -22 -21 -20 -18 -17 -16
-24 -19 -15 -17 -17 -15 -15 -16 -16 -15 -15 -15 -15 -17 -16 -15 -30 -31 -30 -30 -31 -31 -32 -33 -33 -33 -33 -33 -33 -32 -31 -32 -31 -30 -30 -29 -29 -28 -28 -28 -27 -27 -26 -26 -27 -27 -27 -26 -26 -26 -26 -26 -27 -27 -26 -25 -25 -24 -23 -22 -20 -19 -18
-26 -27 -21 -18 -18 -18 -17 -17 -19 -17 -15 -12 -13 -16 -23 -31 -31 -31 -31 -30 -31 -31 -31 -32 -33 -33 -33 -33 -33 -33 -33 -31 -31 -31 -30 -30 -29 -29 -29 -29 -28 -27 -27 -26 -27 -27 -26 -26 -27 -27 -27 -27 -27 -27 -26 -26 -25 -24 -23 -22 -22 -20 -20